Theta_e
327 326 328 326 325 324 323 322 321 320 319 319 320 320 320 322 324 326 329 333 336 337 338 340 339 338 338 348 354 356 355 354 354 355 354 354 352 352 353 353 347 344 344
321 322 325 326 326 324 322 321 319 321 321 321 321 322 322 322 323 323 324 324 324 324 328 335 339 340 339 337 336 345 357 357 355 354 354 354 354 353 350 350 352 350 348
323 324 323 323 323 323 323 322 322 321 319 320 320 321 323 323 323 322 323 323 324 324 326 325 325 328 335 338 337 335 334 341 356 356 353 354 355 355 354 355 355 353 352
322 323 323 322 322 321 321 321 320 319 321 321 320 321 321 321 321 321 320 320 320 321 321 322 322 323 324 326 335 336 335 342 347 351 354 355 354 354 354 354 353 352 354
323 322 322 322 322 322 321 321 321 321 320 318 317 318 319 320 318 315 316 318 319 319 318 319 321 321 322 323 325 327 334 334 332 330 330 333 346 353 354 354 353 353 353
323 323 322 322 322 322 322 321 321 318 319 317 316 316 319 317 314 314 314 314 315 315 315 316 317 318 320 321 321 324 329 333 332 330 328 326 325 331 347 353 354 354 351
323 322 322 322 322 322 321 321 320 319 319 319 318 317 318 315 313 312 312 313 312 313 314 315 316 317 319 320 321 321 322 325 330 331 331 329 328 329 332 343 349 352 352
322 322 322 322 322 322 322 322 322 322 321 320 320 319 316 312 312 312 311 311 311 311 312 313 315 316 317 319 320 320 320 321 322 328 330 330 330 330 331 333 339 346 348
323 323 323 323 322 322 322 322 322 323 323 321 320 319 314 313 312 312 311 311 311 311 311 312 314 316 317 318 319 321 321 321 321 322 322 326 330 330 328 326 325 337 347
323 323 322 323 323 323 323 324 323 324 324 322 320 319 317 313 313 313 312 312 311 311 311 311 311 314 316 317 319 320 320 321 321 322 324 326 327 327 328 329 329 329 337
323 322 323 323 322 323 323 324 323 323 323 321 321 319 317 314 314 313 313 312 311 311 311 311 310 311 313 316 318 319 320 321 320 320 320 321 322 328 331 331 331 333 333
323 323 324 324 323 323 323 323 323 322 322 321 320 320 317 316 315 314 314 312 311 311 310 310 310 310 311 313 317 318 318 319 318 318 319 321 322 324 325 328 333 336 343
322 323 323 322 322 322 322 321 323 324 322 321 318 318 317 317 316 315 313 311 310 310 310 310 310 310 309 310 313 317 318 317 317 317 318 318 319 322 324 328 332 341 344
323 322 322 322 322 321 321 321 323 321 321 318 318 318 317 317 317 316 311 310 310 310 310 308 306 308 310 312 315 317 317 316 317 317 317 318 319 324 325 325 332 337 342
322 322 321 322 322 320 320 320 318 316 317 317 317 317 317 317 317 315 310 310 311 311 311 307 305 308 311 317 318 318 318 318 318 318 319 319 321 325 330 332 335 338 340
322 321 320 321 320 321 321 322 320 319 317 317 317 318 319 318 317 311 311 311 312 312 312 311 310 310 312 319 319 319 320 320 321 322 321 320 323 325 328 331 333 336 338
323 322 321 322 322 322 320 320 320 317 318 317 318 318 319 318 314 310 311 311 311 311 311 312 311 310 313 316 318 319 319 320 320 321 324 324 321 322 326 332 334 337 337
322 320 320 321 322 321 321 318 318 319 318 318 318 318 319 318 313 311 311 312 311 311 311 311 311 311 310 315 316 317 317 318 319 321 325 328 329 330 332 334 335 336 337
321 321 321 321 321 320 319 319 319 319 319 319 318 319 319 318 314 312 311 314 312 311 311 311 311 310 311 311 314 318 320 320 321 325 327 329 331 331 333 334 335 335 333
322 322 322 321 320 320 318 319 319 318 319 318 318 319 319 317 315 314 311 313 314 311 309 309 310 312 310 310 311 313 314 319 320 320 319 322 325 330 332 333 330 328 327
322 320 320 319 320 320 319 318 319 319 319 319 318 319 317 315 315 316 313 311 312 313 308 305 303 305 309 310 309 311 312 313 315 318 320 321 321 322 323 327 327 326 325
319 320 320 320 320 320 320 320 319 319 319 318 317 317 316 315 317 317 316 314 312 313 310 306 304 304 303 303 303 306 310 311 312 313 315 318 318 318 320 322 323 324 325
320 321 320 320 320 320 320 319 319 319 318 317 316 316 315 316 315 317 316 315 314 313 312 309 305 303 303 303 304 304 305 306 310 311 312 313 312 315 317 321 322 321 322
322 320 320 321 319 318 318 318 319 319 317 316 316 316 315 315 315 314 314 314 314 313 312 310 309 303 302 304 304 304 306 307 308 310 308 308 308 310 312 317 319 319 318
320 319 319 316 316 318 318 319 319 317 316 316 316 315 315 315 314 314 314 314 314 314 313 311 311 308 304 304 304 305 305 306 308 308 307 307 306 307 307 309 313 316 318
318 317 317 317 318 319 319 318 319 317 316 316 316 315 316 315 315 314 313 313 313 313 313 313 312 310 307 305 305 305 305 305 307 308 308 307 306 306 307 307 307 308 310
Wind_Speed
16 16 12 10 8 7 8 11 14 15 16 18 19 19 20 23 24 25 25 25 27 30 29 30 33 32 30 26 25 27 26 24 15 28 26 28 31 32 27 27 27 24 22
14 11 9 5 5 9 12 12 15 15 18 19 20 23 23 24 25 26 27 26 29 31 31 29 31 32 33 32 28 27 29 30 25 23 30 28 28 31 34 32 28 24 24
11 8 7 7 10 12 11 15 15 19 21 23 24 24 26 26 27 28 29 32 31 29 29 30 33 31 29 30 32 31 30 30 28 23 29 28 29 27 29 29 27 30 35
6 6 7 8 10 12 12 14 17 18 18 21 23 22 21 24 25 25 29 32 33 33 35 35 36 34 33 33 28 31 33 30 24 23 26 26 25 25 26 28 32 36 32
6 4 9 8 10 10 9 11 14 16 15 19 23 23 21 20 22 31 31 32 32 35 36 37 38 38 38 38 37 35 30 33 28 24 23 25 25 21 19 20 23 23 29
4 5 5 5 6 7 7 9 10 15 17 22 27 28 24 29 39 35 35 36 35 36 38 39 39 40 39 40 40 40 37 34 32 27 27 26 29 30 27 26 26 21 5
3 3 1 2 5 8 12 14 16 17 16 19 22 24 22 29 31 34 36 34 36 38 40 40 40 38 38 39 38 40 42 43 43 36 31 31 29 30 29 28 27 26 26
3 4 5 6 9 11 13 16 17 20 18 19 22 21 22 25 28 30 37 35 35 36 39 42 42 41 39 39 39 40 42 40 39 37 40 40 37 38 36 32 35 35 35
7 8 7 9 13 16 18 20 22 22 23 23 23 23 23 28 30 31 36 38 36 40 40 39 41 42 42 41 40 39 39 41 39 40 46 49 43 44 47 44 38 28 22
12 9 10 13 15 18 22 23 24 25 24 24 28 28 29 30 31 32 33 39 41 45 46 43 40 40 42 44 43 39 38 39 33 34 34 35 38 42 43 43 40 29 26
12 12 14 17 19 21 24 25 25 23 25 29 32 34 34 33 33 30 32 37 39 45 43 41 40 38 39 42 42 40 39 38 34 34 35 35 36 33 29 31 38 35 31
12 14 17 19 23 25 27 29 29 28 29 31 33 33 34 32 31 32 35 41 48 47 47 46 42 40 40 41 43 44 44 43 32 27 25 26 30 31 32 33 39 41 39
16 18 19 22 25 27 30 32 29 30 29 29 29 27 28 31 30 34 34 46 43 44 43 45 49 48 45 43 41 42 42 38 32 30 31 31 31 30 32 34 35 34 37
14 17 20 23 27 29 30 27 23 23 26 28 28 28 25 32 35 33 36 40 42 45 45 43 34 31 32 33 31 32 33 32 30 30 32 33 31 31 32 34 33 29 24
17 18 21 23 23 25 26 19 22 23 25 28 32 31 32 30 30 27 35 44 45 49 48 35 25 19 23 23 24 26 26 27 27 29 31 30 30 31 30 30 30 28 25
18 22 24 25 24 27 29 33 34 32 30 29 31 33 31 25 20 29 31 39 40 43 35 32 29 23 22 18 18 18 20 22 26 24 29 30 26 25 25 27 28 26 24
24 26 24 26 24 26 28 28 25 34 29 29 23 21 19 16 17 26 31 37 36 37 31 33 31 28 28 22 19 19 22 25 24 27 27 27 29 31 30 23 22 24 24
20 21 23 28 30 32 30 29 32 30 27 28 23 18 13 11 13 23 27 31 28 33 33 33 36 38 34 25 21 23 25 27 27 28 26 26 29 26 22 22 23 21 16
25 28 30 29 33 33 33 34 33 23 27 24 25 14 11 10 10 17 22 21 22 24 27 30 33 36 39 36 32 26 20 17 16 14 19 24 19 23 22 22 22 22 20
28 29 32 32 29 26 23 23 26 27 25 25 26 15 10 9 11 13 17 19 19 22 23 24 29 35 33 36 37 34 32 26 24 19 20 18 15 7 5 14 14 13 13
23 23 26 23 26 30 27 24 26 29 29 27 17 11 10 9 10 11 13 14 17 19 20 21 23 28 32 36 34 33 37 36 34 25 21 23 24 25 23 8 19 16 15
28 28 28 30 31 29 30 34 26 26 26 16 15 10 8 10 10 13 14 13 13 15 15 18 18 17 21 22 25 29 32 34 32 32 30 31 31 27 22 20 19 19 14
30 29 28 29 32 29 31 26 25 20 17 19 9 5 5 9 10 16 15 15 14 12 11 13 16 16 18 21 23 24 25 20 24 28 30 36 33 25 30 27 18 18 16
26 26 29 28 23 24 24 29 20 22 9 15 8 6 3 2 6 9 11 12 15 11 12 12 11 10 10 16 20 22 23 27 29 20 24 27 30 29 30 27 24 21 17
20 25 26 28 29 27 25 19 16 7 13 20 10 7 6 6 7 9 10 6 8 13 16 15 12 9 6 9 13 17 19 18 20 21 19 20 21 23 22 15 16 18 17
19 22 25 28 32 29 22 15 11 13 20 24 13 7 8 7 16 8 13 13 9 8 7 13 14 11 9 7 8 10 13 15 14 16 13 18 22 21 23 21 20 19 16
Wind_Direction
101 99 102 90 65 44 28 18 11 2 356 353 350 345 348 338 332 328 322 328 320 316 312 308 302 300 296 294 291 287 279 272 268 282 282 285 286 286 286 304 270 256 240
111 112 106 99 66 20 9 17 9 9 4 356 357 353 347 343 342 339 329 324 318 313 309 308 301 298 289 289 286 287 281 271 265 271 282 283 279 283 284 288 277 267 264
129 119 102 85 58 61 23 29 18 9 7 359 357 353 347 342 339 337 332 330 325 321 314 310 306 308 307 289 280 279 282 284 271 265 276 276 276 276 275 275 280 274 275
82 80 79 50 24 25 18 7 14 7 358 354 352 354 345 338 338 339 328 319 314 309 305 301 297 295 295 296 300 287 282 274 281 280 273 269 271 277 273 267 272 275 275
99 59 46 40 27 21 8 9 5 356 354 352 356 358 348 345 345 334 330 320 312 306 301 297 294 291 288 286 286 285 288 286 279 280 284 286 285 283 269 275 268 272 270
68 51 29 17 11 354 349 346 340 350 353 350 359 355 344 336 339 335 335 325 317 310 304 298 293 288 284 283 282 282 278 276 273 270 270 270 272 270 278 275 275 275 283
178 180 216 298 303 310 323 327 320 330 330 326 338 344 330 333 339 338 331 322 317 308 299 295 291 286 284 280 278 278 276 274 273 274 267 263 268 270 269 269 269 266 264
253 237 266 298 301 299 296 293 292 294 308 304 318 320 321 335 340 337 334 317 311 309 302 294 288 284 280 277 275 272 270 270 268 269 264 264 264 268 264 266 264 262 262
278 282 272 274 276 278 282 291 295 294 293 299 301 295 305 320 328 324 335 319 305 305 304 298 287 283 280 276 271 268 268 267 269 268 267 268 265 264 270 278 273 274 266
270 269 287 287 288 287 288 289 294 291 285 288 287 284 286 289 304 314 321 317 306 305 305 300 292 282 281 275 266 265 265 264 266 269 270 270 264 262 260 263 259 248 249
272 285 284 289 291 291 293 290 287 286 284 281 278 278 271 284 291 294 310 306 304 299 296 291 284 277 275 273 265 262 263 269 267 265 266 267 266 264 255 258 253 245 242
273 288 294 295 292 293 292 290 287 286 279 275 274 277 273 288 292 298 313 314 311 302 299 294 284 277 272 273 268 261 265 270 271 264 262 262 261 261 262 260 255 251 241
292 294 298 300 296 298 297 296 286 282 278 273 278 279 284 298 301 309 319 323 318 313 308 300 289 277 272 270 268 264 263 262 261 260 256 256 258 264 255 261 257 253 249
299 304 302 299 300 301 302 297 283 273 270 277 286 283 290 304 309 314 323 329 332 334 327 320 302 281 270 264 260 258 255 252 249 252 257 257 254 257 247 241 253 249 244
305 302 296 296 300 304 307 297 289 297 291 287 292 290 294 295 309 320 330 338 343 345 339 333 330 298 280 260 252 252 252 250 250 249 251 253 241 250 251 236 233 239 237
286 285 283 289 303 303 301 297 299 291 292 297 293 294 292 295 318 334 335 347 350 352 347 353 343 319 300 261 250 250 257 260 258 262 248 244 242 237 247 242 241 238 239
277 277 281 288 286 286 289 285 276 298 296 298 298 296 284 307 335 345 353 351 355 356 353 353 359 342 327 284 271 262 265 266 269 272 269 247 237 241 243 237 238 239 236
289 292 290 290 288 287 285 285 294 287 284 297 307 305 293 308 332 353 356 352 347 358 358 354 358 1 355 341 281 273 270 272 272 269 269 269 233 228 226 231 236 230 232
290 287 285 281 286 285 294 289 288 297 295 292 305 294 279 295 319 355 354 346 346 345 350 360 1 3 5 360 2 9 2 286 305 283 276 267 241 230 231 235 235 218 189
282 284 282 285 276 292 288 311 293 307 297 301 296 299 255 270 308 339 348 344 346 355 354 355 9 13 4 5 4 12 14 5 8 20 35 57 57 61 209 198 183 161 151
278 289 293 295 300 300 288 304 305 297 292 300 295 269 259 273 296 312 322 334 344 343 351 0 10 22 27 20 15 9 20 12 8 2 33 40 47 50 45 66 123 119 125
280 280 285 290 290 289 290 293 289 304 313 309 304 229 257 262 269 282 295 303 327 333 331 351 357 9 16 14 19 25 24 18 12 15 27 35 42 30 36 50 68 105 106
274 274 281 285 283 285 289 280 283 279 294 273 277 221 262 254 264 265 276 300 307 313 308 335 352 9 24 27 25 25 23 23 29 27 32 39 35 25 38 42 46 50 67
274 274 279 282 293 293 303 304 297 269 288 281 256 254 238 260 250 261 274 289 281 279 275 294 331 346 10 29 30 28 25 27 36 43 38 36 38 36 37 41 52 48 38
280 284 288 295 297 289 288 285 311 300 310 313 257 293 250 267 300 275 289 284 311 307 261 258 283 295 324 358 27 34 28 26 35 44 45 39 45 48 46 36 50 55 60
290 294 298 301 299 301 282 290 304 312 318 307 263 272 266 268 270 252 276 276 269 276 301 272 271 287 288 296 340 10 28 30 26 28 35 34 37 35 37 44 59 63 58